Location: Antoign�
(47.0844°N, 0.1131°W)
Time: 00:40:02
(UTC+00:00)

ASTEX 1 - Pass Details

Date: 03 March 2021
Orbit: 720 x 743 km, 92.7° (Epoch: 14 April)

Event Time Altitude Azimuth Distance (km) Brightness Sun altitude
Rises 19:20:31 0° 12° (NNE) 3,150 6.7 -16.4°
Reaches altitude 10° 19:22:58 10° 20° (NNE) 2,222 5.8 -16.8°
Maximum altitude 19:27:34 39° 89° (E) 1,070 3.7 -17.5°
Enters shadow 19:30:15 22° 146° (SE) 1,563 4.7 -18.0°
